CZ-7A R/B, 55132

Orbit data source: Space-Track

CZ-7A R/B, 55132 is space debris in HEO originally from a launch on Sun, 08 Jan 2023 UTC launched from the Wenchang Satellite Launch Center (WSC). Debris objects in space refer to the collection of defunct objects orbiting the Earth. Examples of debris include non-operational satellites, rocket bodies, and fragments generated from explosions, collisions, or faulty payload assembly.

Loading next visibility...
Identifier
55132, 2023-002B
Orbit
HEO
Last TLE update
1 day ago
Origin
Manufacturer
CALT
Mission
Spacecraft
Bus & Motor
CZ-3A STAGE 3, Unknown motor
Mass
~2,800 kg wet, ~2,800 kg dry
Launch date (UTC)
2023-01-08 (2 years ago)
Launch vehicle
Unknown
Launch site
Wenchang Satellite Launch Center (WSC)
Object type
Payload
Rocket body
Debris
Shape & HBR
Cyl + 1 Nozzle, 12.38 m
Radar Cross Section
32.704 m², Large (>1 m²)

Expand to show TLE details & history

TLE from 1 day ago
0 CZ-7A R/B
1 55132U 23002B   25128.09570257  .00055578  78287-6  13762-2 0  9995
2 55132  16.5398 313.3073 5955141  46.7864 349.6837  4.19399451 26301
Epoch: 2025-05-08T02:17Z
Definitive object data (Epoch: 2025-05-08T02:17:48.702Z)
Latitude
0.00001°
Longitude
52.65177°
Altitude
1,065.93 km
Speed
9.085 km/s
True Right ascension
20h 53m 06s
True Declination
0° 00' 00"
Sunlit
Object was in daylight at TLE epoch
Visualization TLE readout
Latitude
-14.93558°
Longitude
-12.02021°
Altitude
7,344.725 km
Speed
5.792 km/s
Apparent Right ascension
17h 35m 42s
Apparent Declination
-39° 02' 45"
Sunlit
Object is in full shadow
Visualization observer readout
Local Sidereal Time
14:33:00
Azimuth
146.246° SSE
Elevation
0.688°
Doppler factor
1
Orbital elements
Apogee altitude
19,544.173 km
Perigee altitude
193.544 km
Semi-major axis
16,246.995 km
Eccentricity
0.5955141
Inclination
16.5398°
RAAN
313.3073°
Arg. of periapsis
46.7864°
True anomaly
313.47739°
Mean anomaly
349.6837°
Eccentric anomaly
335.57464°
Mean motion
1.04805 °/min
BSTAR
0.0013762
Orbital period
343.49 mins
Loading maneuver chart data...
Loading SW <> Apogee altitude chart data...
Loading historical data...
Loading historical data...
Loading historical data...
Loading historical data...
Loading historical data...
Loading historical data...
Loading historical data...
Other satellites on launch #2 in the year 2023 (2023-01-08 UTC)

CZ-7A R/B Visibility forecast

Observer location: undefined°, undefined°

Span
Click to sort rows by Start time (UTC) header in descending order
Start Az.
Max El. time (UTC)
Max El. Az.
Max El.
End time (UTC)
End Az.
239 mins2025-05-10 00:41:11.187Z235.931° WSW2025-05-10 01:21:11.187Z187.452° SSW27.02°2025-05-10 04:40:11.187Z151.488° SSE
|